Aeroporto :
LOGIN :

Iscrizione | Disclaimer

   EN    FR    IT 

 










Sommario :    VFR   VFR Marginale   IFR   IFR Intensivo   IFR Molto Intensivo
Visibilità : 
Base nubi : 
>= 8 km
>= 3000ft
5 / 8 km
1000 / 3000 ft
1500m / 5 km
500 / 1000 ft
800 / 1500m
200 / 500 ft
< 800m
< 200 ft
Simboli :   Temporali  Nebbia  Neve Forte  Precipitazioni Forti  Vento > 20 kt
SIGMETs :   Varie  Temporali  Ghiacco  Turbolenza  Onda orograficha  Ceneri Vulcaniche






- Altitudine del aeroporto : 390 ft
- Codice IATA : NQY


EGHQ - Newquay

ULTIMO METAR :
  • 080920Z VRB03KT 9999 BKN045 13/04 Q1025

METARs OBSOLETI :
  • 080850Z 35004KT 310V020 9999 OVC049 13/04 Q1025
  • 080820Z 02003KT 9999 OVC049 13/03 Q1025
  • 080750Z 04004KT 9999 OVC047 12/03 Q1025
  • 080720Z 03005KT 9999 OVC048 11/04 Q1025
  • 080650Z AUTO 05005KT 9999 OVC050/// 11/04 Q1024

TAF AMD TAF EGHQ
Valido dal 08 a 09 ore il 08 a 18 ore UTC


080933Z 0809/0818 03005KT 9999 BKN045



MetMap, La meteo Aeronautica in un colpo d'occhio ! - Copyright ORBIFLY Dicembre 2007 - Disclaimer

ORBIFLY MET'MAP TEAM :

Programmazione e sviluppo : Alexandra Zaïnal
Concezione : Baudouin d'Aumeries
Aiuto per la programmazione : Marc-Olivier Méhu
Supporto tecnico e logistico : Manuel Goepfert
Aiuto per la traduzione : Arnaldo La Scala

Contatto : metmap@orbifly.com




FONTI E CREDITI :

   NOAA